Flag for Germany Weather past 2 weeks in Rheda-Wiedenbrück, North Rhine-Westphalia, Germany

Now
59 °F

Fog.


Feels Like: 59 °F
Forecast: 45 / 59 °F
Wind: 1 mph from Southeast

Location: Bad Lippspringe

Current Time: Sep 21, 2014 at 3:11:20 AM

Latest Report: Sep 21, 2014 at 2:00 AM


Visibility: 3 mi

Pressure: 29.95 "Hg

Humidity: 97%

Dew point: 58 °F

Location of Rheda-WiedenbrückLocation

Historic Weather in Rheda-Wiedenbrück — Graph

°F

Rheda-Wiedenbrück temperature yesterday

Maximum temperature yesterday: 68 °F (at 2:00 PM)
Minimum temperature yesterday: 60 °F (at 11:00 PM)
Average temperature yesterday: 64 °F

Past Weeks' High & Low Weather Summary

 TemperatureHumidityPressure
High79 °F (Sep 6, 3:00 PM)99% (Sep 8, 4:00 AM)30.23 "Hg (Sep 8, 4:00 AM)
Low44 °F (Sep 12, 5:00 AM)45% (Sep 6, 3:00 PM)29.85 "Hg (Sep 6, 6:00 PM)
Average61 °F83%30.03 "Hg
* Reported Sep 6 2:00 AM — Sep 21 2:00 AM, Rheda-Wiedenbrück, Weather by CustomWeather, © 2014

Note: Actual official high and low records may vary slightly from our data, if they occured in-between our weather recording intervals... More about our weather records

Advertising

Rheda-Wiedenbrück weather history for previous 24 hours

 ConditionsComfort  
Time TempWeatherWind HumidityBarometerVisibility
2:00 AM
Sep 21
59 °FFog.1 mph97%29.95 "Hg2 mi
1:00 AM59 °FOvercast.1 mph96%29.96 "Hg2 mi
12:00 AM59 °FOvercast.1 mph96%29.96 "Hg2 mi
11:00 PM
Sep 20
60 °FLight rain. Low clouds.1 mph96%29.96 "Hg2 mi
10:00 PM61 °FRain. Low clouds.2 mph93%29.96 "Hg1 mi
9:00 PM64 °FRain. Overcast.2 mph92%29.93 "Hg1 mi
8:00 PM64 °FFog.1 mph94%29.93 "Hg1 mi
3:00 PM68 °FPartly sunny.2 mph80%29.93 "Hg2 mi
2:00 PM68 °FFog.2 mph80%29.95 "Hg2 mi
1:00 PM67 °FFog.2 mph84%29.95 "Hg2 mi
12:00 PM66 °FFog.2 mph87%29.94 "Hg2 mi
11:00 AM64 °FFog.1 mph91%29.94 "Hg1 mi
10:00 AM63 °FFog.2 mph94%29.94 "Hg1 mi
9:00 AM63 °FLow clouds.2 mph95%29.93 "Hg1 mi
8:00 AM63 °FLow clouds.1 mph96%29.93 "Hg1 mi
7:00 AM63 °FFog.1 mph96%29.92 "Hg1 mi
6:00 AM63 °FFog.1 mph96%29.91 "Hg2 mi
5:00 AM63 °FFog.1 mph96%29.92 "Hg1 mi
4:00 AM63 °FFog.2 mph95%29.91 "Hg2 mi
3:00 AM62 °FFog.1 mph97%29.92 "Hg2 mi
Weather by CustomWeather, © 2014

See weather overviewHow to use our weather pages